W5HRH Weather Reports


Display with metric or nautical units.
time (UTC)temp
F
wind
direction
speed
MPH
gust
MPH
rain 1hr
in
rain 24hr
in
rain mn
in
humidity
%
barometer
mb
20260904040027 82 161 0.0 3.0 0.00 0.25 0.25 90 1014.8
20260904035527 82 137 0.0 3.0 0.00 0.25 0.25 90 1014.9
20260904035026 82 137 0.0 3.0 0.00 0.25 0.25 90 1014.9
20260904034526 82 136 0.0 3.0 0.00 0.25 0.25 90 1014.9
20260904034027 82 134 0.0 3.0 0.00 0.25 0.25 90 1015.0
20260904033527 82 165 0.0 4.0 0.00 0.25 0.25 90 1015.0
20260904033026 82 166 2.0 4.0 0.00 0.25 0.25 90 1015.0
20260904032525 82 154 1.0 3.0 0.00 0.25 0.25 90 1015.0
20260904032025 82 163 0.0 5.0 0.00 0.25 0.25 90 1014.9
20260904031526 82 170 1.0 5.0 0.00 0.25 0.25 90 1014.9
20260904031025 81 157 2.0 5.0 0.00 0.25 0.25 90 1014.9
20260904030525 82 168 0.0 5.0 0.00 0.25 0.25 90 1014.8
20260904030025 81 184 1.0 5.0 0.00 0.25 0.25 90 1014.8
20260904025525 81 147 0.0 4.0 0.00 0.25 0.25 90 1015.0
20260904025025 81 158 1.0 3.0 0.00 0.25 0.25 90 1014.9
20260904024525 81 159 0.0 2.0 0.00 0.25 0.25 90 1014.9
20260904024025 81 159 0.0 4.0 0.00 0.25 0.25 91 1014.8
20260904023525 81 161 0.0 4.0 0.00 0.25 0.25 91 1014.6
20260904023025 81 155 0.0 3.0 0.00 0.25 0.25 91 1014.6
20260904022524 81 157 0.0 3.0 0.00 0.25 0.25 91 1014.5
20260904022023 81 154 0.0 2.0 0.00 0.25 0.25 91 1014.4
20260904021534 81 153 0.0 3.0 0.00 0.25 0.25 91 1014.3
20260904021026 81 134 0.0 1.0 0.00 0.25 0.25 91 1014.4
20260904020528 81 134 0.0 1.0 0.00 0.25 0.25 91 1014.3
20260904020023 81 134 0.0 1.0 0.00 0.25 0.25 91 1014.3
20260904015523 81 134 0.0 1.0 0.00 0.25 0.25 91 1014.3
20260904015027 81 134 0.0 2.0 0.00 0.25 0.25 91 1014.2
20260904014525 81 142 0.0 2.0 0.00 0.25 0.25 90 1014.1
20260904014023 81 140 0.0 2.0 0.00 0.25 0.25 90 1014.1
20260904013522 81 140 0.0 2.0 0.00 0.25 0.25 90 1014.0
20260904013024 81 139 0.0 1.0 0.00 0.25 0.25 90 1014.0
20260904012522 81 139 0.0 2.0 0.00 0.25 0.25 90 1014.1
20260904012026 81 139 0.0 3.0 0.00 0.25 0.25 90 1014.0
20260904011521 80 139 0.0 3.0 0.01 0.25 0.25 90 1013.9
20260904011021 80 138 0.0 2.0 0.01 0.25 0.25 90 1013.9
20260904010522 80 138 0.0 0.0 0.01 0.25 0.25 90 1013.8
20260904010021 80 138 0.0 0.0 0.01 0.25 0.25 90 1013.9
20260904005520 80 138 0.0 0.0 0.01 0.25 0.25 90 1013.9
20260904005022 80 138 0.0 0.0 0.01 0.25 0.25 90 1014.0
20260904004520 81 138 0.0 0.0 0.01 0.25 0.25 90 1013.9
20260904004020 81 138 0.0 0.0 0.01 0.25 0.25 90 1013.7
20260904003519 81 138 0.0 0.0 0.01 0.25 0.25 90 1013.8
20260904003019 81 138 0.0 0.0 0.01 0.25 0.25 90 1013.7
20260904002519 81 138 0.0 0.0 0.01 0.25 0.25 90 1013.8
20260904002019 81 138 0.0 0.0 0.01 0.25 0.25 90 1013.9
20260904001522 81 138 0.0 0.0 0.00 0.24 0.24 90 1013.9
20260904001018 80 138 0.0 0.0 0.00 0.24 0.24 90 1013.9
20260904000520 80 138 0.0 0.0 0.00 0.24 0.24 90 1013.9
20260904000018 80 141 0.0 0.0 0.00 0.24 0.24 90 1014.0
20260903235518 80 141 0.0 0.0 0.00 0.24 0.24 90 1013.9
20260903235018 80 141 0.0 0.0 0.00 0.24 0.24 91 1013.9
20260903234517 80 142 0.0 0.0 0.00 0.24 0.24 91 1013.9
20260903234017 80 151 0.0 0.0 0.00 0.24 0.24 91 1013.8
20260903233517 80 151 0.0 0.0 0.00 0.24 0.24 91 1013.9
20260903233016 80 152 0.0 0.0 0.00 0.24 0.24 92 1013.9
20260903232515 80 152 0.0 0.0 0.00 0.24 0.24 91 1014.1
20260903232014 80 152 0.0 0.0 0.00 0.24 0.24 91 1014.0
20260903231515 80 152 0.0 0.0 0.00 0.24 0.24 92 1014.1
20260903231014 80 152 0.0 0.0 0.00 0.24 0.24 92 1014.2
20260903230514 79 152 0.0 0.0 0.00 0.24 0.24 92 1014.1
20260903230015 79 152 0.0 0.0 0.00 0.24 0.24 92 1014.1
20260903225516 79 152 0.0 0.0 0.00 0.24 0.24 93 1014.2
20260903225015 79 152 0.0 0.0 0.00 0.24 0.24 93 1014.1
20260903224513 79 152 0.0 0.0 0.00 0.24 0.24 93 1014.1
20260903224016 79 152 0.0 0.0 0.00 0.24 0.24 93 1014.2
20260903223513 79 156 0.0 0.0 0.00 0.24 0.24 94 1014.4
20260903223013 79 156 0.0 0.0 0.00 0.24 0.24 94 1014.2
20260903222515 79 159 0.0 0.0 0.00 0.24 0.24 94 1014.2
20260903222015 79 161 0.0 0.0 0.00 0.24 0.24 94 1014.2
20260903221515 79 161 0.0 0.0 0.00 0.24 0.24 94 1014.2
20260903221011 79 161 0.0 0.0 0.00 0.24 0.24 94 1014.3
20260903220515 78 161 0.0 1.0 0.00 0.24 0.24 94 1014.2
20260903220012 78 161 0.0 1.0 0.00 0.24 0.24 94 1014.4
20260903215510 78 161 0.0 2.0 0.01 0.24 0.24 94 1014.4
20260903215009 78 161 0.0 2.0 0.01 0.24 0.24 93 1014.4
20260903214512 78 163 0.0 1.0 0.01 0.24 0.24 94 1014.8
20260903214011 78 168 0.0 1.0 0.01 0.24 0.24 94 1015.1
20260903213511 78 168 0.0 1.0 0.01 0.24 0.24 93 1015.2
20260903213009 78 168 0.0 6.0 0.01 0.24 0.24 93 1015.0
20260903212508 78 170 1.0 6.0 0.01 0.24 0.24 93 1015.1
20260903212009 78 111 1.0 6.0 0.01 0.24 0.24 93 1014.9
20260903211507 78 54 1.0 5.0 0.01 0.24 0.24 93 1015.0
20260903211007 78 22 0.0 5.0 0.01 0.24 0.24 94 1015.1
20260903210507 78 347 2.0 5.0 0.01 0.24 0.24 93 1015.2
20260903210008 78 41 0.0 4.0 0.01 0.24 0.24 94 1015.2
20260903205508 78 76 1.0 5.0 0.01 0.23 0.23 93 1015.2
20260903205007 78 69 1.0 4.0 0.01 0.23 0.23 93 1015.3
20260903204507 78 66 1.0 4.0 0.01 0.23 0.23 94 1015.4
20260903204007 78 61 1.0 4.0 0.01 0.23 0.23 94 1015.4
20260903203506 78 20 1.0 5.0 0.01 0.23 0.23 93 1015.3
20260903203006 78 360 1.0 5.0 0.01 0.23 0.23 93 1015.1
20260903202506 78 355 0.0 3.0 0.02 0.23 0.23 93 1015.0
20260903202007 78 355 1.0 3.0 0.02 0.23 0.23 94 1014.9
20260903201508 78 350 0.0 2.0 0.02 0.23 0.23 94 1015.2
20260903201005 78 340 0.0 3.0 0.02 0.23 0.23 94 1015.3
20260903200508 78 340 0.0 5.0 0.03 0.23 0.23 94 1015.1
20260903200006 78 331 1.0 5.0 0.03 0.23 0.23 94 1014.9
20260903195505 78 346 0.0 3.0 0.02 0.22 0.22 94 1015.0
20260903195005 78 346 0.0 3.0 0.02 0.22 0.22 94 1015.1
20260903194506 78 33 0.0 3.0 0.03 0.22 0.22 94 1015.3
20260903194005 78 34 0.0 2.0 0.03 0.22 0.22 94 1015.2
20260903193506 78 34 0.0 2.0 0.04 0.22 0.22 94 1015.3
20260903193005 78 36 0.0 3.0 0.04 0.22 0.22 94 1015.2
20260903192504 78 34 1.0 6.0 0.04 0.21 0.21 94 1015.3
20260903192004 78 28 0.0 6.0 0.04 0.21 0.21 94 1015.4
20260903191504 78 360 1.0 6.0 0.05 0.21 0.21 94 1015.5
20260903191004 78 11 0.0 2.0 0.06 0.21 0.21 94 1015.5
20260903190504 77 31 0.0 2.0 0.05 0.20 0.20 94 1015.5
20260903190004 77 33 0.0 2.0 0.06 0.20 0.20 94 1015.3
20260903185504 77 34 0.0 2.0 0.07 0.20 0.20 93 1015.2
20260903185003 76 32 0.0 4.0 0.07 0.19 0.19 93 1015.4
20260903184503 76 28 1.0 4.0 0.08 0.19 0.19 93 1015.7
20260903184002 76 360 1.0 4.0 0.09 0.19 0.19 93 1015.8
20260903183502 76 42 1.0 4.0 0.09 0.18 0.18 93 1015.7
20260903183003 76 40 1.0 6.0 0.11 0.18 0.18 93 1015.8
20260903182501 76 39 2.0 6.0 0.12 0.17 0.17 92 1016.2
20260903182000 75 86 0.0 3.0 0.15 0.17 0.17 92 1016.3
20260903181500 75 164 0.0 7.0 0.16 0.16 0.16 92 1016.2
20260903181100 75 164 3.0 7.0 0.16 0.16 0.16 91 1015.7
20260903180559 76 147 2.0 8.0 0.15 0.15 0.15 92 1015.8
20260903180100 75 82 1.0 9.0 0.14 0.14 0.14 90 1015.9
20260903175557 76 167 2.0 9.0 0.13 0.13 0.13 90 1016.0
20260903175056 76 115 2.0 8.0 0.12 0.12 0.12 90 1015.8
20260903174556 77 97 1.0 8.0 0.11 0.11 0.11 90 1016.1
20260903174054 77 170 3.0 9.0 0.10 0.10 0.10 89 1016.3
20260903173554 79 110 1.0 7.0 0.09 0.09 0.09 88 1016.4
20260903172549 82 57 2.0 14.0 0.05 0.05 0.05 86 1016.3
20260903172048 84 138 6.0 11.0 0.03 0.03 0.03 82 1016.3
20260903171551 88 194 5.0 12.0 0.00 0.00 0.00 72 1015.9
20260903171048 90 146 1.0 6.0 0.00 0.00 0.00 75 1015.7
20260903170547 90 355 0.0 2.0 0.00 0.00 0.00 74 1015.8
20260903170048 90 346 0.0 5.0 0.00 0.00 0.00 75 1015.6
20260903165547 89 346 1.0 5.0 0.00 0.00 0.00 74 1015.6
20260903165050 90 105 0.0 1.0 0.00 0.00 0.00 75 1015.8
20260903164547 90 106 0.0 2.0 0.00 0.00 0.00 75 1016.0
20260903164046 90 103 1.0 3.0 0.00 0.00 0.00 76 1016.0
20260903163544 89 163 1.0 4.0 0.00 0.00 0.00 77 1016.1
20260903163043 89 163 1.0 4.0 0.00 0.00 0.00 77 1016.0
20260903162541 88 171 1.0 4.0 0.00 0.00 0.00 78 1016.0
20260903162041 88 144 1.0 4.0 0.00 0.00 0.00 79 1015.9
20260903161539 88 182 0.0 2.0 0.00 0.00 0.00 80 1015.8
20260903161039 88 184 0.0 7.0 0.00 0.00 0.00 80 1016.1
20260903160538 87 173 1.0 5.0 0.00 0.00 0.00 81 1016.1
20260903160043 87 165 0.0 5.0 0.00 0.00 0.00 82 1016.1
20260903155537 86 144 3.0 5.0 0.00 0.00 0.00 81 1016.0
20260903155035 86 155 2.0 5.0 0.00 0.00 0.00 82 1015.9
20260903154535 86 157 1.0 6.0 0.00 0.00 0.00 83 1015.8
20260903154034 85 169 1.0 4.0 0.00 0.00 0.00 83 1015.7
20260903153534 85 178 1.0 5.0 0.00 0.00 0.00 84 1015.9
20260903153031 85 153 0.0 5.0 0.00 0.00 0.00 84 1015.8
20260903152530 85 138 0.0 2.0 0.00 0.00 0.00 85 1015.9
20260903152031 84 147 0.0 2.0 0.00 0.00 0.00 85 1015.9
20260903151529 84 143 0.0 1.0 0.00 0.00 0.00 85 1016.0
20260903151029 84 136 0.0 1.0 0.00 0.00 0.00 86 1016.0
20260903150529 84 143 0.0 1.0 0.00 0.00 0.00 86 1016.1
20260903150054 83 142 0.0 2.0 0.00 0.00 0.00 87 1016.2
20260903145528 83 141 0.0 2.0 0.00 0.00 0.00 88 1016.1
20260903145028 83 124 0.0 4.0 0.00 0.00 0.00 88 1016.2
20260903144533 83 142 0.0 4.0 0.00 0.00 0.00 88 1016.4
20260903144027 83 142 0.0 1.0 0.00 0.00 0.00 89 1016.4
20260903143526 83 150 0.0 5.0 0.00 0.00 0.00 89 1016.4
20260903143030 82 150 1.0 5.0 0.00 0.00 0.00 89 1016.4
20260903142527 82 126 0.0 0.0 0.00 0.00 0.00 90 1016.4
20260903142027 82 132 0.0 0.0 0.00 0.00 0.00 90 1016.4
20260903141530 82 132 0.0 0.0 0.00 0.00 0.00 90 1016.4
20260903141024 82 133 0.0 0.0 0.00 0.00 0.00 90 1016.4
20260903140524 82 134 0.0 0.0 0.00 0.00 0.00 90 1016.4
20260903140035 82 166 0.0 0.0 0.00 0.00 0.00 90 1016.5
20260903135522 82 170 0.0 1.0 0.00 0.00 0.00 90 1016.4
20260903135024 82 169 0.0 1.0 0.00 0.00 0.00 90 1016.4
20260903134521 82 170 0.0 2.0 0.00 0.00 0.00 90 1016.4
20260903134024 82 173 0.0 2.0 0.00 0.00 0.00 90 1016.4
20260903133521 82 173 0.0 1.0 0.00 0.00 0.00 90 1016.5
20260903133022 81 173 0.0 0.0 0.00 0.00 0.00 90 1016.5
20260903132522 81 173 0.0 0.0 0.00 0.00 0.00 90 1016.5
20260903132019 81 173 0.0 0.0 0.00 0.00 0.00 90 1016.4
20260903131525 82 173 0.0 0.0 0.00 0.00 0.00 90 1016.2
20260903131019 82 173 0.0 0.0 0.00 0.00 0.00 90 1016.0
20260903130518 82 173 0.0 0.0 0.00 0.00 0.00 90 1016.1
20260903130019 82 173 0.0 0.0 0.00 0.00 0.00 90 1016.1
20260903125522 82 173 0.0 0.0 0.00 0.00 0.00 90 1016.2
20260903125019 82 173 0.0 0.0 0.00 0.00 0.00 89 1016.1
20260903124517 82 173 0.0 0.0 0.00 0.00 0.00 89 1015.9
20260903124016 82 173 0.0 0.0 0.00 0.00 0.00 89 1015.8
20260903123519 82 173 0.0 0.0 0.00 0.00 0.00 89 1015.7
20260903123025 82 173 0.0 0.0 0.00 0.00 0.00 89 1015.7
20260903122515 82 173 0.0 0.0 0.00 0.00 0.00 88 1015.6
20260903122015 82 173 0.0 3.0 0.00 0.00 0.00 88 1015.6
20260903121518 82 173 0.0 3.0 0.00 0.00 0.00 88 1015.4
20260903121014 82 172 0.0 5.0 0.00 0.00 0.00 88 1015.4
20260903120518 82 182 1.0 5.0 0.00 0.00 0.00 88 1015.4
20260903120015 82 160 1.0 5.0 0.00 0.00 0.00 88 1015.5
20260903115514 82 180 0.0 2.0 0.00 0.00 0.00 88 1015.4
20260903115014 82 180 0.0 2.0 0.00 0.00 0.00 88 1015.3
20260903114514 82 177 0.0 1.0 0.00 0.00 0.00 88 1015.3
20260903114014 82 177 0.0 5.0 0.00 0.00 0.00 88 1015.3
20260903113513 82 177 2.0 6.0 0.00 0.00 0.00 88 1015.3
20260903113013 82 182 0.0 3.0 0.00 0.00 0.00 88 1015.3
20260903112512 82 150 0.0 3.0 0.00 0.00 0.00 88 1015.3
20260903112012 83 150 0.0 3.0 0.00 0.00 0.00 87 1015.3
20260903111511 83 175 0.0 3.0 0.00 0.00 0.00 87 1015.3
20260903111010 83 160 0.0 2.0 0.00 0.00 0.00 86 1015.4
20260903110509 83 175 0.0 7.0 0.00 0.00 0.00 86 1015.3
20260903110009 83 181 1.0 6.0 0.00 0.00 0.00 85 1015.3
20260903105513 83 159 1.0 9.0 0.00 0.00 0.00 85 1015.4
20260903105009 83 183 2.0 9.0 0.00 0.00 0.00 85 1015.2
20260903104509 83 172 0.0 4.0 0.00 0.00 0.00 85 1015.3
20260903104008 83 181 0.0 3.0 0.00 0.00 0.00 85 1015.2
20260903103508 84 181 0.0 5.0 0.00 0.00 0.00 85 1015.2
20260903103008 84 164 0.0 5.0 0.00 0.00 0.00 85 1015.2
20260903102508 84 138 1.0 5.0 0.00 0.00 0.00 85 1015.1
20260903102007 84 148 0.0 2.0 0.00 0.00 0.00 85 1015.0
20260903101507 84 142 0.0 5.0 0.00 0.00 0.00 85 1015.1
20260903101010 84 160 0.0 5.0 0.00 0.00 0.00 85 1015.0
20260903100507 84 172 0.0 2.0 0.00 0.00 0.00 85 1015.0
20260903100006 84 173 0.0 4.0 0.00 0.00 0.00 85 1015.0
20260903095506 84 179 0.0 6.0 0.00 0.00 0.00 85 1015.0
20260903095006 84 186 1.0 5.0 0.00 0.00 0.00 85 1015.0
20260903094506 84 173 0.0 3.0 0.00 0.00 0.00 85 1015.0
20260903094006 84 179 0.0 3.0 0.00 0.00 0.00 85 1015.0
20260903093508 84 168 0.0 5.0 0.00 0.00 0.00 85 1015.1
20260903093006 84 182 2.0 6.0 0.00 0.00 0.00 84 1015.0
20260903092505 84 173 2.0 6.0 0.00 0.00 0.00 84 1015.1
20260903092005 84 182 2.0 9.0 0.00 0.00 0.00 84 1014.9
20260903091506 84 171 3.0 9.0 0.00 0.00 0.00 84 1015.0
20260903091004 84 165 0.0 7.0 0.00 0.00 0.00 84 1015.0
20260903090504 84 182 0.0 4.0 0.00 0.00 0.00 84 1015.0
20260903090012 84 172 1.0 5.0 0.00 0.00 0.00 84 1015.0
20260903085503 84 169 1.0 4.0 0.00 0.00 0.00 84 1014.9
20260903085004 84 157 0.0 6.0 0.00 0.00 0.00 84 1015.0
20260903084510 84 136 1.0 5.0 0.00 0.00 0.00 84 1014.9
20260903084005 84 158 1.0 6.0 0.00 0.00 0.00 84 1014.8
20260903083504 84 155 0.0 6.0 0.00 0.00 0.00 84 1014.8
20260903083003 84 148 0.0 8.0 0.00 0.00 0.00 84 1014.8
20260903082503 84 123 2.0 8.0 0.00 0.00 0.00 84 1014.8
20260903082003 84 162 1.0 7.0 0.00 0.00 0.00 84 1014.8
20260903081503 84 157 0.0 7.0 0.00 0.00 0.00 84 1014.7
20260903081004 84 190 2.0 6.0 0.00 0.00 0.00 84 1014.8
20260903080502 84 181 2.0 7.0 0.00 0.00 0.00 84 1014.8
20260903080002 84 170 1.0 11.0 0.00 0.00 0.00 84 1014.7
20260903075502 84 200 3.0 11.0 0.00 0.00 0.00 84 1014.7
20260903075001 84 175 4.0 8.0 0.00 0.00 0.00 84 1014.7
20260903074501 84 229 2.0 7.0 0.00 0.00 0.00 84 1014.6
20260903074001 84 183 2.0 8.0 0.00 0.00 0.00 84 1014.7
20260903073503 84 182 1.0 10.0 0.00 0.00 0.00 84 1014.8
20260903073001 84 178 3.0 10.0 0.00 0.00 0.00 84 1014.7
20260903072600 84 182 2.0 9.0 0.00 0.00 0.00 85 1014.8
20260903072059 83 172 3.0 7.0 0.00 0.00 0.00 85 1014.9
20260903071609 84 180 0.0 8.0 0.00 0.00 0.00 85 1014.9
20260903071059 84 167 1.0 8.0 0.00 0.00 0.00 85 1015.0
20260903070558 84 173 2.0 6.0 0.00 0.00 0.00 85 1015.0
20260903070059 84 126 2.0 6.0 0.00 0.00 0.00 85 1015.0
20260903065558 84 169 2.0 6.0 0.00 0.00 0.00 85 1015.2
20260903065057 84 167 1.0 6.0 0.00 0.00 0.00 84 1015.2
20260903064559 84 169 1.0 8.0 0.00 0.00 0.00 85 1015.3
20260903064055 84 182 0.0 5.0 0.00 0.00 0.00 84 1015.3
20260903063555 84 204 0.0 5.0 0.00 0.00 0.00 84 1015.4
20260903063106 84 175 1.0 5.0 0.00 0.00 0.00 84 1015.5
20260903062553 84 190 1.0 5.0 0.00 0.00 0.00 84 1015.5
20260903062055 84 163 1.0 4.0 0.00 0.00 0.00 84 1015.6
20260903061557 84 141 0.0 5.0 0.00 0.00 0.00 84 1015.7
20260903061051 84 178 1.0 5.0 0.00 0.00 0.00 84 1015.8
20260903060551 84 178 0.0 3.0 0.00 0.00 0.00 84 1015.9
20260903060051 84 153 0.0 5.0 0.00 0.00 0.00 84 1015.9
20260903055551 84 194 1.0 5.0 0.00 0.00 0.00 84 1016.0
20260903055050 84 175 0.0 5.0 0.00 0.00 0.00 84 1015.9
20260903054549 84 173 2.0 6.0 0.00 0.00 0.00 84 1016.1
20260903054051 84 200 0.0 6.0 0.00 0.00 0.00 84 1016.1
20260903053550 85 182 0.0 5.0 0.00 0.00 0.00 84 1016.2
20260903053108 85 180 0.0 5.0 0.00 0.00 0.00 84 1016.2
20260903052546 85 160 0.0 6.0 0.00 0.00 0.00 84 1016.2
20260903052047 85 175 0.0 4.0 0.00 0.00 0.00 84 1016.2
20260903051547 85 175 0.0 5.0 0.00 0.00 0.00 84 1016.3
20260903051046 85 188 0.0 5.0 0.00 0.00 0.00 84 1016.4
20260903050549 85 157 1.0 4.0 0.00 0.00 0.00 84 1016.4
20260903050057 85 169 0.0 6.0 0.00 0.00 0.00 84 1016.3
20260903045545 85 184 0.0 4.0 0.00 0.00 0.00 84 1016.4
20260903045044 85 154 0.0 5.0 0.00 0.00 0.00 84 1016.4
20260903044556 85 163 0.0 6.0 0.00 0.00 0.00 84 1016.3
20260903044044 85 188 2.0 9.0 0.00 0.00 0.00 84 1016.2
20260903043545 85 161 0.0 8.0 0.00 0.00 0.00 84 1016.4
20260903043056 85 166 2.0 8.0 0.00 0.00 0.00 84 1016.3
20260903042544 85 159 0.0 8.0 0.00 0.00 0.00 84 1016.2
20260903042046 85 170 1.0 11.0 0.00 0.00 0.00 84 1016.2
20260903041550 85 148 2.0 11.0 0.00 0.00 0.00 84 1016.1
20260903041045 85 167 3.0 9.0 0.00 0.00 0.00 84 1016.1
20260903040544 85 137 3.0 9.0 0.00 0.00 0.00 84 1016.1